Zurück zum Katalog

STARLINK-37736

AktivKommunikationSSO
NORAD 69226·PAYLOAD·🇺🇸 United States

Gestartet May 26, 2026 von Vandenberg Space Force Base

Loading…

Nächste Überflüge (nächste 24 Stunden)

TLE

AktuellSource: CelesTrak SupGP

Epoche: Sep 14, 2026, 15:55 UTC

1 69226C 26115R   26257.66368056 -.00059611  00000+0 -18507-2 0  2575
2 69226  97.2832 273.8685 0001672  94.9856  48.6200 15.33465584    19

Verfolge STARLINK-37736 in Echtzeit mit AllMySat

Download on the App Store